weather.gov     
National Weather Service

Terminal Aerodrome Forecast
NWS Homepage
This page is being discontinued on March 12, 2014.
The same data is available at this site. Please update your bookmarks.
Thank you, and we apologize for the inconvenience.
Please send an email to SR-SRH.Webmaster@noaa.gov with any concerns.


Current Version
Previous Version:    01  02  03  04  05  06  07  08  09  10  11  12  13  14  15  16  17  18  19  20  21  22  23  24  25  
[Printable]
763
FTUS44 KSHV 010500
TAFSHV
TAF
KSHV 010524Z 0106/0206 07007KT 6SM -RA BR SCT007 OVC012
      TEMPO 0106/0110 3SM SHRA BR OVC007
     FM011000 08006KT 4SM BR OVC005
     FM011600 04007KT 6SM BR OVC008
     FM011800 03007KT P6SM OVC015
     FM012100 03007KT P6SM OVC023
     FM020300 03005KT P6SM OVC015=


U.S. Dept. of Commerce
NOAA National Weather Service
1325 East West Highway
Silver Spring, MD 20910
E-mail: w-nws.webmaster@noaa.gov
Page last modified: May 16, 2007
NATIONAL WEATHER SERVICE: for Safety, for Work, for Fun - FOR LIFE